DELTA 1 DEB

Satellite information

Favourite Embed

Satellite Type and Status

DEBRISIN ORBIT

Key statistics

Satellite DELTA 1 DEB at a glance.

Uptime

18400

Days in orbit

Revolutions

≈ 12.9

Per day

Orbit

SSO

Sun Synchronous Orbit

Inclination

99.6

Latest

Satellite identification and parameters

Extended collection of information and parameters for DELTA 1 DEB.

Object identification

Identified? True

Debris? True

Object name: DELTA 1 DEB

International designator: 1975-052JW

Object number (NORAD): 21972

Object ID (CCSDS): 21972

Country: UNITED STATES OF AMERICA (US)

Current information (Y/N): Y

RCS size: SMALL

Orbital parameters

Period: 111.448 minutes

Inclination: 99.6223 deg

SMA: 7671.417 km

Apoapsis: 1550.087 km

Periapsis: 1036.476 km

RAAN: 169.8866 deg

Eccentricy: 0.03347562

Argument of periapsis: 259.8459 deg

Mean anomaly: 126.306 deg

Mean motion: 12.92080021 rev/day

Mean motion (dot): 0.00000182 rev/day2

B* drag term: 0.00063884043 1/REarth

Two-line elements (TLE)

Creation date: Oct. 27, 2025, 2:46 a.m.

Reference frame: TEME

Reference center: EARTH

Epoch: Oct. 26, 2025, 1:38 p.m. UTC

TLE line 0: 0 DELTA 1 DEB

TLE line 1: 1 21972U 75052JW 25299.56872010 .00000182 00000-0 63884-3 0 9999

TLE line 2: 2 21972 99.6223 169.8866 0334756 259.8459 126.3060 12.92080021584233

Live tracking on map

Real-time ground track for satellite DELTA 1 DEB.

In-orbit conjunctions

A list of the most updated potential collisions computed for object DELTA 1 DEB.

Target Orbit TCA Probability of collision Miss distance Type
COSMOS 2338 LEO 2025-06-07 10:09:01 0.0001547685 655.0 (m) PAYLOAD

Associated space launch

Experimental meteorological satellite

DELTA 1 DEB was lifted into orbit during the mission ‘Delta 2910 | Nimbus 6’, on board a Delta 2910 space rocket.

The launch took place on June 12, 1975, 8:12 a.m. from Space Launch Complex 2W.

For more information about the launch, click the button.

Launch to space Delta 2910 | Nimbus 6
Delta 2910 | Nimbus 6

Agency: N/A

Status: Launch Successful

Launch date: June 12, 1975, 8:12 a.m. UTC

Rocket: Delta 2910

Launch pad: Space Launch Complex 2W

Location: Vandenberg SFB, CA, USA

...

Latest news about this satellite

There are no fresh news available about this satellite. Check back as we update our databases every day.


Newsletter sign-up

Weekly statistics, charts and insights to help you stay on top of the space industry.